Starlink 31390

operational
NORAD ID: 58937 Int'l Des: 2024-027 Owner: SPXS Country: US Constellation: starlink
LEOCIRCULAR

About Starlink 31390

Description loading...

Live Position

Loading 3D Globe...

Upcoming Passes

Altitude History

Altitude vs Time

uPlot chart will show altitude changes over time

Two-Line Element Set

1 58937U 24027G 25306.38300297 .00000552 00000-0 30782-4 0 9991
2 58937 53.1590 181.1939 0002039 84.6422 275.4811 15.30185077 97831
Epoch: Nov 2, 2025 • Age: 44 hours

Current Status

Altitude 475.7 km
Velocity 7.63 km/s
Sub-Earth Point 26.73°N, 72.53°E
Launch Date Feb 10, 2024
Age 1.7 years
Type internet

Technical Details

Classification Payload
Mass 730.00 kg
Dry Mass 700.00 kg
Total Mass 730.00 kg
Length 0.30 m
Diameter 4.10 m
Span 29.00 m
Shape Box + pan
Manufacturer SPXS
Bus Type Starlink V2M
Phase Status In Orbit
Owner/State SPXS/US

Large Constellations

Loading constellations...